Content
SEND FEEDBACK

France Flag

LE HAVRE, FRANCE


Home > Europe > France
Elevation: 103 meters     Latitude: 49 31N     Longitude: 000 04E

WEATHER
 
SELECT A DAY
Number of Records: 219,354;   Date Range: 3/4/97 - 3/22/16
 
SHARE

PRINT THIS DATA

[ ← Previous Day ]
WEATHER ALMANAC - 21 SEPTEMBER, 2013
[ Next Day → ]
[ °F ]   °C
Weather ElementAverageHighLow
Temperature15.6 °C20 °C (5:30 pm)12 °C (5:00 am)
Dewpoint10.7 °C13 °C (9:30 pm)9 °C (12:30 am)
Humidity73.5 %88 % (2:00 am)49 % (5:30 pm)
Barometer1025.7 hPa1028.1 hPa (11:00 pm)1023 hPa (1:00 am)
Wind Speed6.6 km/h11.1 km/h (2:30 pm)
Weather ElementAverage
Visibility10 km
Wind DirectionS (184.9 °)

Weather ElementTotal
Precipitation---
Heating Degree Days2.3 (Base 18.3)
Growing Degree Days6 (Base 10)
Averaged from 47 records on 21 September, 2013
WEATHER CONDITIONS BREAKOUT
WIND DIRECTION BREAKOUT
WEATHER BY HOUR - 21 SEPTEMBER, 2013
[ °F ]   °C
Local TimeTemperatureDewpointHumidityBarometerVisibilityWind DirectionWind SpeedGust SpeedPrecipitationEventsConditions
12:30 AM14 °C9 °C72 %1024 hPa10 kmVariable5.6 km/hOvercast
1:00 AM14 °C10 °C77 %1023 hPa10 kmSouth (180°)5.6 km/hMostly Cloudy
1:30 AM13 °C10 °C82 %1023 hPa10 kmSSE (160°)7.4 km/hPartly Cloudy
2:00 AM13 °C11 °C88 %1024 hPa10 kmSouth (190°)7.4 km/hPartly Cloudy
2:30 AM13 °C10 °C82 %1024 hPa10 kmSSE (160°)5.6 km/hScattered Clouds
3:00 AM13 °C10 °C82 %1024 hPa10 kmSouth (180°)5.6 km/h
3:30 AM13 °C11 °C88 %1024 hPa10 kmSSW (200°)5.6 km/hPartly Cloudy
4:00 AM13 °C10 °C82 %1024 hPa10 kmSouth (180°)7.4 km/hPartly Cloudy
4:30 AM13 °C10 °C82 %1024 hPa10 kmSouth (180°)5.6 km/h
5:00 AM12 °C9 °C82 %1024 hPa10 kmSW (230°)7.4 km/h
5:30 AM13 °C10 °C82 %1024 hPa10 kmSouth (180°)9.3 km/h
6:00 AM12 °C10 °C88 %1024 hPa10 kmSouth (170°)5.6 km/h
6:30 AM12 °C10 °C88 %1024 hPa10 kmSouth (170°)7.4 km/h
7:00 AM12 °C10 °C88 %1025.1 hPa10 kmCalm
7:30 AM12 °C10 °C88 %1024 hPa10 kmSSE (160°)5.6 km/h
8:00 AM12 °C10 °C88 %1025.1 hPa10 kmSSE (160°)5.6 km/h
8:30 AM12 °C10 °C88 %1025.1 hPa10 kmVariable3.7 km/hPartly Cloudy
9:00 AM12 °C10 °C88 %1025.1 hPa10 kmSouth (170°)5.6 km/h
9:30 AM13 °C10 °C82 %1025.1 hPa10 kmSSE (160°)7.4 km/h
10:00 AM13 °C10 °C82 %1025.1 hPa10 kmSouth (170°)7.4 km/h
10:30 AM14 °C10 °C77 %1025.1 hPa10 kmSSE (160°)7.4 km/h
11:00 AM15 °C11 °C77 %1026.1 hPa10 kmSSW (200°)7.4 km/hPartly Cloudy
11:30 AM16 °C11 °C72 %1026.1 hPa10 kmSSW (210°)7.4 km/h
12:00 PM16 °C11 °C72 %1026.1 hPa10 kmSouth (190°)7.4 km/h
12:30 PM16 °C11 °C72 %1026.1 hPa10 kmSouth (190°)9.3 km/h
1:00 PM16 °C10 °C68 %1026.1 hPa10 kmSSW (200°)9.3 km/h
1:30 PM17 °C10 °C63 %1027.1 hPa10 kmSSW (210°)9.3 km/h
2:00 PM17 °C10 °C63 %1027.1 hPa10 kmSW (220°)9.3 km/h
2:30 PM17 °C11 °C68 %1027.1 hPa10 kmSW (230°)11.1 km/h
3:00 PM18 °C12 °C68 %1026.1 hPa10 kmSW (220°)11.1 km/h
3:30 PM19 °C11 °C60 %1026.1 hPa10 kmWSW (250°)11.1 km/h
4:00 PM19 °C11 °C60 %1026.1 hPa10 kmWest (260°)9.3 km/h
4:30 PM18 °C11 °C64 %1027.1 hPa10 kmWNW (300°)7.4 km/hPartly Cloudy
5:00 PM19 °C10 °C56 %1026.1 hPa10 kmWest (270°)5.6 km/h
5:30 PM20 °C9 °C49 %1026.1 hPa10 kmWest (260°)5.6 km/h
6:00 PM20 °C11 °C56 %1026.1 hPa10 kmWest (260°)7.4 km/h
6:30 PM20 °C12 °C60 %1026.1 hPa10 kmWNW (300°)5.6 km/h
7:00 PM20 °C12 °C60 %1026.1 hPa10 kmVariable3.7 km/hMostly Cloudy
7:30 PM18 °C12 °C68 %1027.1 hPa10 kmWNW (300°)3.7 km/hScattered Clouds
8:00 PM18 °C12 °C68 %1027.1 hPa10 kmVariable3.7 km/hOvercast
8:30 PM19 °C11 °C60 %1027.1 hPa10 kmSouth (190°)3.7 km/hOvercast
9:00 PM19 °C12 °C64 %1027.1 hPa10 kmVariable3.7 km/hOvercast
9:30 PM18 °C13 °C73 %1027.1 hPa10 kmWSW (240°)5.6 km/hOvercast
10:00 PM18 °C12 °C68 %1027.1 hPa10 kmWest (260°)7.4 km/hOvercast
10:30 PM18 °C12 °C68 %1027.1 hPa10 kmWest (260°)5.6 km/hOvercast
11:00 PM18 °C13 °C73 %1028.1 hPa10 kmWSW (250°)3.7 km/hOvercast
11:30 PM18 °C12 °C68 %1028.1 hPa10 kmWest (260°)5.6 km/hOvercast
Hourly data recorded from LFOH, located 0 kilometers away from Le Havre, France




STORIES FROM OUR PARTNERS